| time (UTC) | temp F | wind direction | speed knots | gust knots | rain 1hr in | rain 24hr in | rain mn in | humidity % | barometer mb |
| 20260506084506 | 76 | 159 | 0.9 | 6.1 | 0.00 | 0.01 | 0.00 | 88 | 1007.7 |
| 20260506084004 | 76 | 126 | 4.3 | 7.0 | 0.00 | 0.01 | 0.00 | 88 | 1007.4 |
| 20260506083005 | 77 | 132 | 3.5 | 3.5 | 0.00 | 0.01 | 0.00 | 88 | 1007.6 |
| 20260506082506 | 77 | 153 | 1.7 | 5.2 | 0.00 | 0.01 | 0.00 | 88 | 1007.7 |
| 20260506082004 | 77 | 153 | 0.9 | 6.1 | 0.00 | 0.01 | 0.00 | 88 | 1007.7 |
| 20260506081504 | 77 | 138 | 0.0 | 6.1 | 0.00 | 0.01 | 0.00 | 87 | 1007.9 |
| 20260506080509 | 77 | 171 | 4.3 | 4.3 | 0.00 | 0.01 | 0.00 | 87 | 1007.9 |
| 20260506073504 | 77 | 182 | 1.7 | 6.1 | 0.00 | 0.01 | 0.00 | 87 | 1008.3 |
| 20260506073005 | 77 | 130 | 0.9 | 6.1 | 0.00 | 0.01 | 0.00 | 87 | 1008.3 |
| 20260506072506 | 77 | 136 | 2.6 | 5.2 | 0.00 | 0.01 | 0.00 | 87 | 1008.4 |
| 20260506072010 | 77 | 133 | 0.9 | 5.2 | 0.00 | 0.01 | 0.00 | 87 | 1008.4 |
| 20260506071504 | 77 | 193 | 2.6 | 6.1 | 0.00 | 0.01 | 0.00 | 87 | 1008.5 |
| 20260506071005 | 77 | 126 | 2.6 | 5.2 | 0.00 | 0.01 | 0.00 | 87 | 1008.5 |
| 20260506070507 | 77 | 174 | 1.7 | 4.3 | 0.00 | 0.01 | 0.00 | 87 | 1008.6 |
| 20260506062006 | 77 | 144 | 0.9 | 6.1 | 0.00 | 0.01 | 0.00 | 87 | 1008.7 |
| 20260506061505 | 77 | 158 | 2.6 | 7.0 | 0.00 | 0.01 | 0.00 | 87 | 1008.7 |
| 20260506061006 | 77 | 146 | 1.7 | 7.0 | 0.00 | 0.01 | 0.00 | 87 | 1008.6 |
| 20260506060507 | 77 | 184 | 1.7 | 4.3 | 0.00 | 0.01 | 0.00 | 87 | 1008.6 |
| 20260506051006 | 77 | 181 | 0.9 | 7.0 | 0.00 | 0.01 | 0.00 | 86 | 1008.7 |
| 20260506050510 | 77 | 184 | 1.7 | 7.0 | 0.00 | 0.01 | 0.00 | 86 | 1008.8 |
| 20260506045006 | 77 | 182 | 1.7 | 7.0 | 0.00 | 0.01 | 0.01 | 85 | 1008.7 |
| 20260506044506 | 78 | 137 | 2.6 | 7.8 | 0.00 | 0.01 | 0.01 | 85 | 1008.7 |
| 20260506044005 | 78 | 169 | 0.9 | 8.7 | 0.00 | 0.01 | 0.01 | 85 | 1008.6 |
| 20260506043505 | 78 | 173 | 6.1 | 8.7 | 0.00 | 0.01 | 0.01 | 85 | 1008.6 |
| 20260506043006 | 78 | 169 | 1.7 | 5.2 | 0.00 | 0.01 | 0.01 | 85 | 1008.7 |
| 20260506042506 | 78 | 175 | 5.2 | 7.8 | 0.00 | 0.01 | 0.01 | 85 | 1008.8 |
| 20260506041504 | 78 | 173 | 2.6 | 7.0 | 0.00 | 0.01 | 0.01 | 84 | 1008.6 |
| 20260506041005 | 78 | 164 | 7.8 | 7.8 | 0.00 | 0.01 | 0.01 | 84 | 1008.5 |
| 20260506040506 | 78 | 107 | 0.9 | 9.6 | 0.00 | 0.01 | 0.01 | 84 | 1008.3 |
| 20260506040007 | 78 | 169 | 3.5 | 9.6 | 0.00 | 0.01 | 0.01 | 84 | 1008.4 |
| 20260506035504 | 78 | 139 | 3.5 | 9.6 | 0.00 | 0.01 | 0.01 | 84 | 1008.5 |
| 20260506035006 | 78 | 127 | 4.3 | 6.1 | 0.00 | 0.01 | 0.01 | 84 | 1008.4 |
| 20260506034504 | 78 | 148 | 1.7 | 7.0 | 0.00 | 0.01 | 0.01 | 84 | 1008.4 |
| 20260506033504 | 78 | 128 | 1.7 | 8.7 | 0.00 | 0.01 | 0.01 | 84 | 1008.0 |
| 20260506033006 | 78 | 121 | 2.6 | 6.1 | 0.00 | 0.01 | 0.01 | 83 | 1008.2 |
| 20260506032506 | 78 | 164 | 3.5 | 7.8 | 0.00 | 0.01 | 0.01 | 83 | 1008.2 |
| 20260506032005 | 78 | 161 | 4.3 | 7.8 | 0.00 | 0.01 | 0.01 | 83 | 1008.2 |
| 20260506031505 | 78 | 157 | 1.7 | 4.3 | 0.00 | 0.01 | 0.01 | 83 | 1008.1 |
| 20260506031005 | 78 | 186 | 1.7 | 6.1 | 0.00 | 0.01 | 0.01 | 83 | 1008.1 |
| 20260506030506 | 79 | 182 | 0.9 | 6.1 | 0.00 | 0.01 | 0.01 | 83 | 1008.0 |
| 20260506030009 | 79 | 160 | 0.9 | 6.1 | 0.00 | 0.01 | 0.01 | 83 | 1008.1 |
| 20260506025005 | 79 | 205 | 0.9 | 7.8 | 0.00 | 0.01 | 0.01 | 83 | 1007.8 |
| 20260506024507 | 79 | 145 | 0.9 | 7.8 | 0.00 | 0.01 | 0.01 | 82 | 1007.7 |
| 20260506024005 | 79 | 155 | 2.6 | 5.2 | 0.00 | 0.01 | 0.01 | 82 | 1007.5 |
| 20260506023504 | 79 | 144 | 1.7 | 7.8 | 0.00 | 0.01 | 0.01 | 82 | 1007.4 |
| 20260506022506 | 79 | 131 | 1.7 | 7.8 | 0.00 | 0.01 | 0.01 | 82 | 1007.3 |
| 20260506022004 | 79 | 135 | 1.7 | 5.2 | 0.00 | 0.01 | 0.01 | 81 | 1007.3 |
| 20260506021506 | 79 | 192 | 0.9 | 7.8 | 0.00 | 0.01 | 0.01 | 81 | 1007.2 |
| 20260506021005 | 79 | 143 | 2.6 | 8.7 | 0.00 | 0.01 | 0.01 | 81 | 1007.1 |
| 20260506020509 | 79 | 127 | 0.9 | 6.1 | 0.00 | 0.01 | 0.01 | 80 | 1007.0 |
| 20260506020011 | 79 | 162 | 1.7 | 7.8 | 0.00 | 0.01 | 0.01 | 79 | 1007.0 |
| 20260506015505 | 80 | 162 | 3.5 | 7.8 | 0.00 | 0.01 | 0.01 | 79 | 1007.0 |
| 20260506014509 | 80 | 170 | 0.9 | 7.0 | 0.00 | 0.01 | 0.01 | 78 | 1006.9 |
| 20260506014004 | 80 | 139 | 0.9 | 7.0 | 0.00 | 0.01 | 0.01 | 78 | 1006.7 |
| 20260506013504 | 80 | 198 | 0.9 | 7.0 | 0.00 | 0.01 | 0.01 | 78 | 1006.7 |
| 20260506013005 | 80 | 155 | 1.7 | 12.2 | 0.00 | 0.01 | 0.01 | 78 | 1006.7 |
| 20260506012506 | 80 | 165 | 0.0 | 12.2 | 0.00 | 0.01 | 0.01 | 78 | 1006.6 |
| 20260506012004 | 80 | 169 | 1.7 | 7.0 | 0.00 | 0.01 | 0.01 | 78 | 1006.5 |
| 20260506011506 | 80 | 177 | 2.6 | 7.8 | 0.00 | 0.01 | 0.01 | 78 | 1006.4 |
| 20260506011005 | 80 | 132 | 0.9 | 6.1 | 0.00 | 0.01 | 0.01 | 78 | 1006.3 |
| 20260506010507 | 80 | 148 | 2.6 | 7.0 | 0.00 | 0.01 | 0.01 | 78 | 1006.2 |
| 20260506010010 | 80 | 122 | 0.9 | 7.0 | 0.00 | 0.01 | 0.01 | 78 | 1006.1 |
| 20260506005504 | 80 | 175 | 1.7 | 7.8 | 0.00 | 0.01 | 0.01 | 77 | 1006.2 |
| 20260506005005 | 80 | 159 | 0.9 | 7.8 | 0.00 | 0.01 | 0.01 | 77 | 1006.2 |
| 20260506004504 | 80 | 178 | 0.9 | 12.2 | 0.00 | 0.01 | 0.01 | 77 | 1006.1 |
| 20260506004004 | 81 | 164 | 1.7 | 12.2 | 0.00 | 0.01 | 0.01 | 77 | 1006.0 |
| 20260506003505 | 81 | 135 | 1.7 | 7.0 | 0.00 | 0.01 | 0.01 | 77 | 1006.0 |
| 20260506003005 | 81 | 187 | 3.5 | 7.8 | 0.00 | 0.01 | 0.01 | 77 | 1006.0 |
| 20260506002506 | 81 | 208 | 0.9 | 7.0 | 0.00 | 0.01 | 0.01 | 77 | 1006.1 |
| 20260506002005 | 81 | 155 | 2.6 | 7.0 | 0.00 | 0.01 | 0.01 | 77 | 1006.0 |
| 20260506001005 | 81 | 191 | 5.2 | 10.4 | 0.00 | 0.01 | 0.01 | 77 | 1005.9 |
| 20260506000504 | 81 | 160 | 3.5 | 7.8 | 0.00 | 0.01 | 0.01 | 77 | 1005.8 |
| 20260506000007 | 82 | 179 | 1.7 | 9.6 | 0.00 | 0.01 | 0.01 | 77 | 1006.0 |
| 20260505235005 | 82 | 177 | 1.7 | 8.7 | 0.00 | 0.01 | 0.01 | 77 | 1006.0 |
| 20260505234506 | 82 | 177 | 1.7 | 8.7 | 0.00 | 0.01 | 0.01 | 76 | 1005.9 |
| 20260505234004 | 82 | 185 | 3.5 | 9.6 | 0.00 | 0.01 | 0.01 | 76 | 1005.9 |
| 20260505233005 | 82 | 148 | 3.5 | 8.7 | 0.00 | 0.01 | 0.01 | 76 | 1005.9 |
| 20260505232505 | 82 | 124 | 2.6 | 8.7 | 0.00 | 0.01 | 0.01 | 75 | 1005.8 |
| 20260505231504 | 82 | 167 | 4.3 | 8.7 | 0.00 | 0.01 | 0.01 | 75 | 1006.0 |
| 20260505231005 | 83 | 168 | 4.3 | 7.8 | 0.00 | 0.01 | 0.01 | 74 | 1005.9 |
| 20260505230505 | 83 | 154 | 1.7 | 7.8 | 0.00 | 0.01 | 0.01 | 74 | 1006.0 |
| 20260505230007 | 83 | 190 | 2.6 | 7.8 | 0.01 | 0.01 | 0.01 | 73 | 1005.9 |
| 20260505225504 | 83 | 193 | 3.5 | 7.0 | 0.01 | 0.01 | 0.01 | 73 | 1005.8 |
| 20260505225008 | 84 | 179 | 5.2 | 7.0 | 0.01 | 0.01 | 0.01 | 73 | 1005.8 |
| 20260505224505 | 84 | 117 | 2.6 | 7.0 | 0.01 | 0.01 | 0.01 | 74 | 1005.7 |
| 20260505224004 | 84 | 194 | 4.3 | 7.8 | 0.01 | 0.01 | 0.01 | 74 | 1005.7 |
| 20260505223504 | 84 | 169 | 1.7 | 9.6 | 0.01 | 0.01 | 0.01 | 74 | 1005.7 |
| 20260505223005 | 84 | 162 | 1.7 | 9.6 | 0.01 | 0.01 | 0.01 | 73 | 1005.8 |
| 20260505222505 | 84 | 173 | 0.0 | 7.8 | 0.01 | 0.01 | 0.01 | 74 | 1006.0 |
| 20260505222004 | 84 | 225 | 4.3 | 7.8 | 0.01 | 0.01 | 0.01 | 73 | 1005.9 |
| 20260505221503 | 84 | 158 | 2.6 | 13.0 | 0.01 | 0.01 | 0.01 | 74 | 1005.9 |
| 20260505221005 | 84 | 177 | 0.0 | 13.0 | 0.01 | 0.01 | 0.01 | 74 | 1005.9 |
| 20260505220504 | 84 | 155 | 0.9 | 8.7 | 0.01 | 0.01 | 0.01 | 75 | 1006.0 |
| 20260505220006 | 84 | 105 | 5.2 | 7.8 | 0.00 | 0.00 | 0.00 | 73 | 1006.0 |
| 20260505215005 | 84 | 256 | 1.7 | 8.7 | 0.00 | 0.00 | 0.00 | 72 | 1006.3 |
| 20260505214505 | 85 | 223 | 2.6 | 8.7 | 0.00 | 0.00 | 0.00 | 73 | 1006.4 |
| 20260505213508 | 84 | 213 | 3.5 | 7.0 | 0.00 | 0.00 | 0.00 | 73 | 1006.4 |
| 20260505213005 | 84 | 217 | 2.6 | 6.1 | 0.00 | 0.00 | 0.00 | 73 | 1006.5 |
| 20260505212505 | 84 | 200 | 1.7 | 6.1 | 0.00 | 0.00 | 0.00 | 72 | 1006.6 |
| 20260505211504 | 84 | 273 | 1.7 | 8.7 | 0.00 | 0.00 | 0.00 | 73 | 1006.6 |
| 20260505211005 | 84 | 215 | 5.2 | 8.7 | 0.00 | 0.00 | 0.00 | 73 | 1006.7 |
| 20260505210007 | 84 | 192 | 2.6 | 10.4 | 0.00 | 0.00 | 0.00 | 72 | 1006.9 |
| 20260505205503 | 84 | 159 | 4.3 | 7.8 | 0.00 | 0.00 | 0.00 | 73 | 1006.8 |
| 20260505205005 | 84 | 181 | 0.0 | 7.8 | 0.00 | 0.00 | 0.00 | 73 | 1006.8 |
| 20260505204503 | 84 | 183 | 4.3 | 7.0 | 0.00 | 0.00 | 0.00 | 73 | 1007.0 |
| 20260505204004 | 84 | 190 | 2.6 | 8.7 | 0.00 | 0.00 | 0.00 | 73 | 1007.0 |
| 20260505203504 | 84 | 153 | 4.3 | 7.8 | 0.00 | 0.00 | 0.00 | 74 | 1007.2 |
| 20260505203005 | 83 | 196 | 1.7 | 7.0 | 0.00 | 0.00 | 0.00 | 74 | 1007.2 |
| 20260505202505 | 84 | 155 | 1.7 | 7.8 | 0.00 | 0.00 | 0.00 | 75 | 1007.3 |
| 20260505200504 | 85 | 180 | 7.0 | 7.8 | 0.00 | 0.00 | 0.00 | 73 | 1007.4 |
| 20260505200006 | 85 | 190 | 2.6 | 7.0 | 0.00 | 0.00 | 0.00 | 74 | 1007.4 |
| 20260505195507 | 84 | 226 | 2.6 | 7.0 | 0.00 | 0.00 | 0.00 | 74 | 1007.6 |
| 20260505194505 | 84 | 182 | 3.5 | 11.3 | 0.00 | 0.00 | 0.00 | 73 | 1007.7 |
| 20260505194004 | 84 | 235 | 4.3 | 9.6 | 0.00 | 0.00 | 0.00 | 74 | 1007.8 |
| 20260505193503 | 83 | 215 | 2.6 | 7.8 | 0.00 | 0.00 | 0.00 | 76 | 1007.9 |
| 20260505193005 | 82 | 182 | 3.5 | 12.2 | 0.00 | 0.00 | 0.00 | 77 | 1007.9 |
| 20260505192505 | 82 | 219 | 4.3 | 12.2 | 0.00 | 0.00 | 0.00 | 77 | 1007.9 |
| 20260505191007 | 82 | 205 | 1.7 | 10.4 | 0.00 | 0.00 | 0.00 | 76 | 1008.0 |
| 20260505190505 | 82 | 190 | 1.7 | 10.4 | 0.00 | 0.00 | 0.00 | 75 | 1008.0 |
| 20260505185503 | 82 | 198 | 1.7 | 10.4 | 0.00 | 0.00 | 0.00 | 75 | 1008.1 |
| 20260505185005 | 82 | 184 | 2.6 | 7.8 | 0.00 | 0.00 | 0.00 | 76 | 1008.1 |
| 20260505184505 | 82 | 198 | 3.5 | 9.6 | 0.00 | 0.00 | 0.00 | 76 | 1008.2 |
| 20260505184004 | 82 | 232 | 4.3 | 9.6 | 0.00 | 0.00 | 0.00 | 76 | 1008.2 |
| 20260505183005 | 82 | 189 | 1.7 | 6.1 | 0.00 | 0.00 | 0.00 | 77 | 1008.3 |
| 20260505182505 | 81 | 225 | 1.7 | 8.7 | 0.00 | 0.00 | 0.00 | 77 | 1008.5 |
| 20260505182004 | 81 | 171 | 5.2 | 12.2 | 0.00 | 0.00 | 0.00 | 78 | 1008.3 |
| 20260505181503 | 81 | 184 | 2.6 | 12.2 | 0.00 | 0.00 | 0.00 | 78 | 1008.4 |
| 20260505180505 | 80 | 184 | 0.9 | 6.1 | 0.00 | 0.00 | 0.00 | 79 | 1008.4 |
| 20260505180007 | 80 | 185 | 4.3 | 6.1 | 0.00 | 0.00 | 0.00 | 78 | 1008.4 |
| 20260505175503 | 81 | 184 | 2.6 | 7.0 | 0.00 | 0.00 | 0.00 | 78 | 1008.4 |
| 20260505175005 | 81 | 165 | 4.3 | 7.8 | 0.00 | 0.00 | 0.00 | 77 | 1008.5 |
| 20260505174004 | 81 | 202 | 0.9 | 8.7 | 0.00 | 0.00 | 0.00 | 77 | 1008.6 |
| 20260505173503 | 81 | 202 | 1.7 | 5.2 | 0.00 | 0.00 | 0.00 | 79 | 1008.6 |
| 20260505172504 | 80 | 219 | 1.7 | 10.4 | 0.00 | 0.00 | 0.00 | 80 | 1008.7 |
| 20260505172006 | 80 | 174 | 0.9 | 6.1 | 0.00 | 0.00 | 0.00 | 80 | 1008.8 |
| 20260505171503 | 80 | 177 | 0.9 | 8.7 | 0.00 | 0.00 | 0.00 | 80 | 1008.8 |
| 20260505171005 | 79 | 161 | 1.7 | 7.8 | 0.00 | 0.00 | 0.00 | 80 | 1008.9 |
| 20260505170504 | 79 | 171 | 4.3 | 7.8 | 0.00 | 0.00 | 0.00 | 81 | 1008.9 |
| 20260505170008 | 79 | 223 | 2.6 | 6.1 | 0.00 | 0.00 | 0.00 | 81 | 1008.8 |
| 20260505165503 | 78 | 165 | 4.3 | 6.1 | 0.00 | 0.00 | 0.00 | 81 | 1008.9 |
| 20260505165014 | 79 | 131 | 1.7 | 6.1 | 0.00 | 0.00 | 0.00 | 81 | 1008.9 |
| 20260505164504 | 79 | 200 | 0.9 | 6.1 | 0.00 | 0.00 | 0.00 | 81 | 1009.0 |
| 20260505164004 | 79 | 227 | 4.3 | 6.1 | 0.00 | 0.00 | 0.00 | 81 | 1009.0 |
| 20260505163004 | 79 | 188 | 0.9 | 7.0 | 0.00 | 0.00 | 0.00 | 81 | 1009.0 |
| 20260505162504 | 79 | 201 | 1.7 | 6.1 | 0.00 | 0.00 | 0.00 | 81 | 1009.0 |
| 20260505162003 | 78 | 196 | 2.6 | 4.3 | 0.00 | 0.00 | 0.00 | 81 | 1008.9 |
| 20260505161503 | 78 | 182 | 1.7 | 4.3 | 0.00 | 0.00 | 0.00 | 81 | 1008.9 |
| 20260505161004 | 78 | 213 | 1.7 | 7.0 | 0.00 | 0.00 | 0.00 | 81 | 1008.9 |
| 20260505160504 | 78 | 171 | 5.2 | 7.8 | 0.00 | 0.00 | 0.00 | 82 | 1008.8 |
| 20260505153004 | 77 | 215 | 1.7 | 7.8 | 0.00 | 0.00 | 0.00 | 82 | 1008.6 |
| 20260505152504 | 77 | 180 | 3.5 | 7.8 | 0.00 | 0.00 | 0.00 | 82 | 1008.7 |
| 20260505152003 | 77 | 213 | 1.7 | 6.1 | 0.00 | 0.00 | 0.00 | 82 | 1008.7 |
| 20260505151004 | 78 | 152 | 2.6 | 6.1 | 0.00 | 0.00 | 0.00 | 82 | 1008.6 |
| 20260505140506 | 76 | 220 | 2.6 | 5.2 | 0.00 | 0.00 | 0.00 | 84 | 1008.4 |
| 20260505125005 | 74 | 151 | 2.6 | 6.1 | 0.00 | 0.00 | 0.00 | 87 | 1007.8 |
| 20260505124005 | 73 | 165 | 1.7 | 4.3 | 0.00 | 0.00 | 0.00 | 87 | 1007.8 |
| 20260505123504 | 73 | 178 | 0.9 | 4.3 | 0.00 | 0.00 | 0.00 | 87 | 1008.3 |
| 20260505123008 | 73 | 184 | 0.0 | 4.3 | 0.00 | 0.00 | 0.00 | 87 | 1008.1 |
| 20260505122504 | 73 | 166 | 3.5 | 5.2 | 0.00 | 0.00 | 0.00 | 87 | 1008.1 |
| 20260505122005 | 73 | 191 | 0.9 | 3.5 | 0.00 | 0.00 | 0.00 | 87 | 1008.2 |
| 20260505121507 | 72 | 188 | 0.0 | 3.5 | 0.00 | 0.00 | 0.00 | 87 | 1008.1 |
| 20260505121005 | 72 | 188 | 1.7 | 4.3 | 0.00 | 0.00 | 0.00 | 87 | 1008.1 |
| 20260505120506 | 72 | 188 | 1.7 | 4.3 | 0.00 | 0.00 | 0.00 | 88 | 1008.1 |
| 20260505120007 | 72 | 178 | 0.0 | 4.3 | 0.00 | 0.00 | 0.00 | 88 | 1007.9 |
| 20260505115504 | 72 | 159 | 0.9 | 5.2 | 0.00 | 0.00 | 0.00 | 88 | 1007.7 |
| 20260505115005 | 72 | 150 | 3.5 | 4.3 | 0.00 | 0.00 | 0.00 | 87 | 1007.6 |
| 20260505114506 | 72 | 196 | 0.0 | 6.1 | 0.00 | 0.00 | 0.00 | 87 | 1007.7 |
| 20260505114004 | 72 | 185 | 3.5 | 6.1 | 0.00 | 0.00 | 0.00 | 87 | 1007.9 |
| 20260505113505 | 72 | 175 | 0.9 | 7.0 | 0.00 | 0.00 | 0.00 | 87 | 1007.9 |
| 20260505112005 | 72 | 219 | 4.3 | 6.1 | 0.00 | 0.00 | 0.00 | 87 | 1007.9 |
| 20260505111504 | 72 | 165 | 3.5 | 6.1 | 0.00 | 0.00 | 0.00 | 87 | 1007.8 |
| 20260505111009 | 72 | 192 | 2.6 | 4.3 | 0.00 | 0.00 | 0.00 | 87 | 1007.7 |
| 20260505110506 | 72 | 190 | 0.0 | 4.3 | 0.00 | 0.00 | 0.00 | 87 | 1007.7 |
| 20260505102004 | 71 | 169 | 0.9 | 5.2 | 0.00 | 0.00 | 0.00 | 87 | 1007.8 |
| 20260505101504 | 71 | 168 | 0.9 | 5.2 | 0.00 | 0.00 | 0.00 | 87 | 1007.8 |
| 20260505100505 | 71 | 130 | 0.9 | 7.8 | 0.00 | 0.00 | 0.00 | 87 | 1008.0 |
| 20260505095504 | 71 | 169 | 0.9 | 3.5 | 0.00 | 0.00 | 0.00 | 87 | 1008.0 |
| 20260505095005 | 71 | 170 | 0.0 | 3.5 | 0.00 | 0.00 | 0.00 | 87 | 1007.9 |
| 20260505093504 | 71 | 169 | 0.0 | 4.3 | 0.00 | 0.00 | 0.00 | 87 | 1008.0 |
| 20260505093005 | 71 | 167 | 0.9 | 6.1 | 0.00 | 0.00 | 0.00 | 87 | 1008.0 |
| 20260505092005 | 71 | 167 | 2.6 | 5.2 | 0.00 | 0.00 | 0.00 | 87 | 1008.2 |
| 20260505091504 | 71 | 168 | 0.0 | 5.2 | 0.00 | 0.00 | 0.00 | 87 | 1008.2 |
| 20260505091010 | 71 | 165 | 0.9 | 5.2 | 0.00 | 0.00 | 0.00 | 87 | 1008.2 |
| 20260505090007 | 71 | 165 | 0.9 | 4.3 | 0.00 | 0.00 | 0.00 | 86 | 1008.1 |
| 20260505085504 | 71 | 165 | 1.7 | 5.2 | 0.00 | 0.00 | 0.00 | 86 | 1008.1 |
| 20260505085005 | 71 | 165 | 1.7 | 5.2 | 0.00 | 0.00 | 0.00 | 86 | 1008.2 |